TimeEST,TemperatureF,Dew PointF,Humidity,Sea Level PressureIn,VisibilityMPH,Wind Direction,Wind SpeedMPH,Gust SpeedMPH,PrecipitationIn,Events,Conditions,WindDirDegrees,DateUTC
12:15 AM,56.5,56.3,99,30.13,7.0,Calm,Calm,-,N/A,,Overcast,0,2013-11-23 05:15:00
12:35 AM,56.1,55.8,99,30.13,5.0,Calm,Calm,-,N/A,,Overcast,0,2013-11-23 05:35:00
12:55 AM,55.6,55.4,99,30.13,3.0,Calm,Calm,-,N/A,,Overcast,0,2013-11-23 05:55:00
1:15 AM,55.8,55.6,99,30.13,4.0,Calm,Calm,-,N/A,,Overcast,0,2013-11-23 06:15:00
1:35 AM,55.4,55.2,99,30.12,4.0,Calm,Calm,-,N/A,,Overcast,0,2013-11-23 06:35:00
1:55 AM,55.6,55.4,99,30.12,4.0,Calm,Calm,-,N/A,,Overcast,0,2013-11-23 06:55:00
2:15 AM,54.9,54.7,99,30.13,2.5,Calm,Calm,-,N/A,,Overcast,0,2013-11-23 07:15:00
2:35 AM,55.2,55.2,100,30.12,4.0,South,4.6,-,N/A,,Overcast,180,2013-11-23 07:35:00
2:55 AM,54.7,54.7,100,30.13,0.8,Calm,Calm,-,N/A,,Overcast,0,2013-11-23 07:55:00
3:15 AM,55.4,55.4,100,30.12,0.5,Calm,Calm,-,N/A,Fog,Fog,0,2013-11-23 08:15:00
3:35 AM,53.4,53.4,100,30.12,0.2,Calm,Calm,-,N/A,Fog,Fog,0,2013-11-23 08:35:00
3:55 AM,52.9,52.9,100,30.11,0.2,NNW,3.5,-,N/A,Fog,Fog,330,2013-11-23 08:55:00
4:15 AM,52.7,52.7,100,30.11,0.2,Calm,Calm,-,N/A,Fog,Fog,0,2013-11-23 09:15:00
4:35 AM,52.2,52.2,100,30.11,0.5,Calm,Calm,-,N/A,Fog,Fog,0,2013-11-23 09:35:00
4:55 AM,51.1,51.1,100,30.10,0.2,Calm,Calm,-,N/A,Fog,Fog,0,2013-11-23 09:55:00
5:15 AM,50.9,50.9,100,30.10,0.2,Calm,Calm,-,N/A,Fog,Fog,0,2013-11-23 10:15:00
5:35 AM,50.0,50.0,100,30.11,0.2,Calm,Calm,-,N/A,Fog,Fog,0,2013-11-23 10:35:00
5:55 AM,50.7,50.7,100,30.11,1.0,Calm,Calm,-,N/A,,Overcast,0,2013-11-23 10:55:00
6:15 AM,50.9,50.9,100,30.12,1.8,North,4.6,-,N/A,,Mostly Cloudy,350,2013-11-23 11:15:00
6:35 AM,51.8,51.8,100,30.11,10.0,North,4.6,-,N/A,,Clear,10,2013-11-23 11:35:00
6:55 AM,51.6,50.9,97,30.11,10.0,North,4.6,-,N/A,,Clear,360,2013-11-23 11:55:00
7:15 AM,51.1,50.2,97,30.12,10.0,Calm,Calm,-,N/A,,Clear,0,2013-11-23 12:15:00
7:35 AM,51.4,50.0,95,30.13,10.0,Calm,Calm,-,N/A,,Clear,0,2013-11-23 12:35:00
7:55 AM,50.2,50.0,99,30.13,10.0,Calm,Calm,-,N/A,,Clear,0,2013-11-23 12:55:00
8:15 AM,52.9,52.0,97,30.14,10.0,South,3.5,-,N/A,,Clear,180,2013-11-23 13:15:00
8:35 AM,52.9,52.0,97,30.15,10.0,South,6.9,-,N/A,,Clear,190,2013-11-23 13:35:00
8:55 AM,54.5,52.0,91,30.15,10.0,Calm,Calm,-,N/A,,Clear,0,2013-11-23 13:55:00
9:15 AM,54.1,51.4,91,30.16,10.0,Calm,Calm,-,N/A,,Scattered Clouds,0,2013-11-23 14:15:00
9:35 AM,55.4,50.5,84,30.16,10.0,North,5.8,-,N/A,,Mostly Cloudy,350,2013-11-23 14:35:00
9:55 AM,55.9,46.8,71,30.17,10.0,North,4.6,-,N/A,,Overcast,360,2013-11-23 14:55:00
10:15 AM,56.3,46.6,70,30.17,10.0,NNW,5.8,-,N/A,,Overcast,340,2013-11-23 15:15:00
10:35 AM,56.3,45.7,68,30.15,10.0,North,3.5,-,N/A,,Mostly Cloudy,360,2013-11-23 15:35:00
10:55 AM,56.5,45.5,67,30.15,10.0,North,4.6,-,N/A,,Mostly Cloudy,360,2013-11-23 15:55:00
11:15 AM,57.2,45.7,65,30.15,10.0,NNW,4.6,-,N/A,,Overcast,330,2013-11-23 16:15:00
11:35 AM,57.2,45.0,64,30.15,10.0,NNW,3.5,-,N/A,,Overcast,340,2013-11-23 16:35:00
11:55 AM,57.2,43.7,61,30.15,10.0,North,5.8,-,N/A,,Overcast,360,2013-11-23 16:55:00
12:15 PM,57.2,43.5,60,30.14,10.0,NNE,4.6,-,N/A,,Mostly Cloudy,30,2013-11-23 17:15:00
12:35 PM,57.4,42.6,58,30.13,10.0,North,4.6,-,N/A,,Scattered Clouds,10,2013-11-23 17:35:00
12:55 PM,58.1,43.3,58,30.12,10.0,North,3.5,-,N/A,,Mostly Cloudy,360,2013-11-23 17:55:00
1:15 PM,57.2,42.1,57,30.11,10.0,NNE,5.8,-,N/A,,Overcast,30,2013-11-23 18:15:00
1:35 PM,56.3,41.0,57,30.11,10.0,North,5.8,-,N/A,,Overcast,10,2013-11-23 18:35:00
1:55 PM,55.6,41.0,58,30.11,10.0,NNE,6.9,-,N/A,,Overcast,20,2013-11-23 18:55:00
2:15 PM,55.6,40.8,58,30.11,10.0,NNE,6.9,-,N/A,,Scattered Clouds,30,2013-11-23 19:15:00
2:35 PM,57.2,40.6,54,30.11,10.0,North,5.8,-,N/A,,Mostly Cloudy,10,2013-11-23 19:35:00
2:55 PM,56.3,39.4,53,30.10,10.0,NE,6.9,-,N/A,,Scattered Clouds,40,2013-11-23 19:55:00
3:15 PM,56.3,37.4,49,30.11,10.0,North,6.9,-,N/A,,Clear,360,2013-11-23 20:15:00
3:35 PM,55.0,36.1,49,30.12,10.0,North,4.6,-,N/A,,Clear,360,2013-11-23 20:35:00
3:55 PM,54.5,35.6,49,30.12,10.0,Calm,Calm,-,N/A,,Clear,0,2013-11-23 20:55:00
4:15 PM,54.0,35.6,50,30.12,10.0,Calm,Calm,-,N/A,,Clear,0,2013-11-23 21:15:00
4:35 PM,52.7,36.1,53,30.13,10.0,WNW,4.6,-,N/A,,Clear,290,2013-11-23 21:35:00
4:55 PM,52.2,35.1,52,30.14,10.0,NNW,5.8,-,N/A,,Clear,330,2013-11-23 21:55:00
5:15 PM,51.3,34.5,53,30.13,10.0,NW,4.6,-,N/A,,Clear,320,2013-11-23 22:15:00
5:35 PM,50.5,34.3,54,30.14,10.0,WNW,4.6,-,N/A,,Clear,300,2013-11-23 22:35:00
5:55 PM,50.0,31.8,50,30.15,10.0,NNW,5.8,-,N/A,,Clear,340,2013-11-23 22:55:00
6:15 PM,49.1,26.6,42,30.15,10.0,NNW,4.6,-,N/A,,Clear,340,2013-11-23 23:15:00
6:35 PM,48.4,25.5,41,30.16,10.0,Calm,Calm,-,N/A,,Clear,0,2013-11-23 23:35:00
6:55 PM,48.0,24.3,39,30.16,10.0,Calm,Calm,-,N/A,,Clear,0,2013-11-23 23:55:00
7:15 PM,46.8,22.3,38,30.17,10.0,North,3.5,-,N/A,,Clear,350,2013-11-24 00:15:00
7:35 PM,45.9,21.2,38,30.17,10.0,NNW,3.5,-,N/A,,Clear,340,2013-11-24 00:35:00
7:55 PM,45.9,19.4,35,30.17,10.0,North,6.9,-,N/A,,Clear,10,2013-11-24 00:55:00
8:15 PM,43.9,21.2,41,30.17,10.0,NNW,3.5,-,N/A,,Clear,330,2013-11-24 01:15:00
8:35 PM,43.9,21.6,41,30.17,10.0,Calm,Calm,-,N/A,,Clear,0,2013-11-24 01:35:00
8:55 PM,44.1,20.7,39,30.17,10.0,Calm,Calm,-,N/A,,Clear,0,2013-11-24 01:55:00
9:15 PM,43.5,21.7,42,30.18,10.0,Calm,Calm,-,N/A,,Clear,0,2013-11-24 02:15:00
9:35 PM,40.1,23.2,51,30.18,10.0,Calm,Calm,-,N/A,,Clear,0,2013-11-24 02:35:00
9:55 PM,42.6,18.0,37,30.19,10.0,North,4.6,-,N/A,,Clear,360,2013-11-24 02:55:00
10:15 PM,40.1,19.4,43,30.19,10.0,Calm,Calm,-,N/A,,Clear,0,2013-11-24 03:15:00
10:35 PM,41.0,18.5,40,30.19,10.0,North,3.5,-,N/A,,Clear,360,2013-11-24 03:35:00
10:55 PM,39.6,19.0,44,30.21,10.0,North,3.5,-,N/A,,Clear,350,2013-11-24 03:55:00
11:15 PM,39.7,19.9,45,30.21,10.0,North,6.9,-,N/A,,Clear,360,2013-11-24 04:15:00
11:35 PM,39.2,21.2,49,30.22,10.0,North,4.6,-,N/A,,Clear,360,2013-11-24 04:35:00
11:55 PM,38.8,19.6,46,30.23,10.0,North,6.9,-,N/A,,Clear,360,2013-11-24 04:55:00